Location: Columbus
(35.2256°N, 82.1549°W)
Time: 12:05:16
(UTC-04:00)

Envisat - Visible Passes

Search period start: 17 July 2025 00:00
Search period end: 27 July 2025 00:00
Orbit: 761 x 763 km, 98.3° (Epoch: 16 July)

Date Brightness Start Highest point End Pass type
(mag) Time Alt. Az. Time Alt. Az. Time Alt. Az.
17 Jul 4.0 03:44:08 10° NNE 03:48:53 40° E 03:50:21 32° SE visible
17 Jul 4.5 05:23:50 10° NNW 05:27:30 20° WNW 05:30:29 13° WSW visible
18 Jul 5.1 03:07:48 10° NE 03:10:57 16° E 03:12:10 15° ESE visible
18 Jul 3.4 04:45:15 10° N 04:50:05 47° WNW 04:52:17 29° SW visible
19 Jul 3.1 04:07:25 10° NNE 04:12:29 71° ESE 04:14:05 43° S visible
19 Jul 5.0 05:48:54 10° NW 05:50:46 12° WNW 05:52:36 10° W visible
20 Jul 4.4 03:30:19 10° NE 03:34:41 29° E 03:35:54 26° ESE visible
20 Jul 4.1 05:09:14 10° NNW 05:13:29 28° WNW 05:16:01 18° WSW visible
21 Jul 5.5 02:55:03 10° ENE 02:56:41 11° E 02:57:42 11° ESE visible
21 Jul 3.0 04:30:59 10° N 04:36:00 66° WNW 04:37:49 39° SW visible
22 Jul 3.6 03:53:24 10° NNE 03:58:19 50° E 03:59:37 40° SE visible
22 Jul 4.7 05:33:42 10° NNW 05:36:48 17° WNW 05:39:45 11° WSW visible
23 Jul 4.8 03:16:41 10° NE 03:20:28 21° E 03:21:25 20° ESE visible
23 Jul 3.7 04:54:48 10° N 04:59:28 38° WNW 05:01:33 26° WSW visible
24 Jul 2.9 04:16:49 10° NNE 04:21:54 89° ESE 04:23:21 48° SSW visible
25 Jul 4.1 03:39:30 10° NNE 03:44:09 36° E 03:45:09 33° ESE visible
25 Jul 4.4 05:18:57 10° NNW 05:22:49 22° WNW 05:25:16 16° WSW visible
26 Jul 5.2 03:03:23 10° ENE 03:06:13 15° E 03:06:57 14° ESE visible
26 Jul 3.2 04:40:29 10° N 04:45:24 52° WNW 04:47:04 36° SW visible
